Location: Beaufort Park
(39.1418°N, 76.9433°W)
Time: 20:47:36
(UTC+00:00)

Cosmos 1656 - Pass Details

Date: 29 October 2020
Orbit: 797 x 851 km, 71.1° (Epoch: 02 December)

Event Time Altitude Azimuth Distance (km) Brightness Sun altitude
Rises 23:17:24 0° 215° (SW) 3,329 7.5 -13.7°
Reaches altitude 10° 23:19:51 10° 220° (SW) 2,409 6.8 -14.1°
Maximum altitude 23:25:15 53° 297° (WNW) 1,014 4.5 -15.2°
Drops below altitude 10° 23:30:45 10° 13° (NNE) 2,459 5.9 -16.2°
Sets 23:33:18 0° 19° (NNE) 3,405 6.6 -16.7°
